GFSSGP_sfc_dewp_087.txt.gz
Dewpoint
57 49 46 39 33 30 29 32 35 33 35 39 37 43 49 50 52 49 61 63 65 67 68 68 70 70 70 70 70 71 70 68 66 66 66 65 67 66 65 65 66 65 64 64 65 66 67 67 67
52 43 38 35 29 26 21 30 33 38 38 37 37 40 45 53 57 59 60 63 66 67 67 68 69 70 70 70 70 70 70 68 66 66 65 66 68 67 65 64 66 64 63 64 65 66 67 67 66
48 43 31 31 29 22 25 31 35 38 38 36 36 43 47 55 57 58 62 63 64 65 66 67 69 70 70 70 70 70 69 68 66 65 64 65 67 66 65 64 64 64 63 63 65 65 66 65 64
39 34 29 22 26 18 24 33 32 32 32 33 42 45 50 55 57 60 61 61 63 65 67 68 69 70 70 70 70 69 69 67 65 66 65 64 65 66 65 64 64 65 64 63 65 65 65 63 63
33 33 27 26 22 20 29 33 32 30 31 32 35 47 52 58 60 60 59 61 64 66 67 68 69 69 70 70 69 69 68 66 65 65 65 64 64 64 65 64 64 64 65 64 64 64 64 63 62
30 31 26 24 20 19 25 30 29 27 30 32 46 49 52 58 59 59 60 61 65 66 67 67 66 67 69 69 69 69 68 67 66 65 65 64 63 64 65 65 64 64 65 64 64 64 63 62 62
30 30 26 26 20 20 24 27 25 24 27 26 41 48 52 57 58 59 62 62 65 66 66 66 66 66 66 67 68 68 68 67 66 66 66 66 66 65 66 67 66 65 65 65 64 64 63 62 61
31 31 28 25 20 22 25 26 23 27 33 36 44 48 50 55 58 59 63 62 63 63 64 63 64 65 65 65 64 65 66 66 66 65 64 63 63 63 63 64 66 65 65 65 65 64 63 62 60
31 26 25 25 22 24 26 24 26 30 33 38 45 46 51 57 58 59 63 62 62 62 61 61 62 63 64 64 63 63 63 64 63 62 61 60 60 60 60 61 64 65 64 64 64 64 63 61 60
27 26 26 26 24 25 25 24 24 30 34 38 53 54 55 56 56 56 61 62 61 61 60 60 60 62 63 63 64 64 62 62 61 61 60 60 59 60 59 58 60 63 62 62 62 60 61 60 58
27 25 26 22 26 27 26 25 24 30 29 37 52 54 54 55 55 56 57 61 62 62 62 62 60 61 61 62 63 63 63 62 61 59 59 59 59 59 59 58 58 57 57 59 59 56 57 57 56
23 23 24 30 28 27 26 25 22 24 24 34 54 55 55 54 55 56 56 59 61 62 63 61 61 60 60 61 62 62 62 62 61 60 59 58 57 57 59 58 58 57 57 58 58 57 56 55 55
25 23 26 28 25 27 25 24 22 23 25 38 53 54 54 54 54 55 57 58 60 61 62 62 61 60 61 60 61 61 61 62 61 61 59 58 58 57 58 58 59 58 57 57 56 55 55 55 54
26 27 25 26 25 25 23 23 21 23 25 43 51 52 54 54 54 54 55 56 58 60 61 62 61 62 61 60 62 62 61 61 61 61 59 59 58 58 57 57 57 57 56 55 55 54 54 54 54
26 23 23 24 25 23 23 22 19 23 25 28 41 48 50 52 52 53 54 55 57 59 61 62 62 62 63 61 62 62 63 62 61 61 60 59 58 57 57 57 57 56 56 55 53 53 53 53 53
23 23 20 23 24 26 22 17 21 22 22 23 27 34 44 48 50 51 52 53 56 57 60 62 62 62 63 62 63 62 62 62 61 61 61 60 59 58 56 57 57 57 56 55 54 53 53 53 52
23 18 19 22 23 22 18 16 19 18 18 19 21 24 32 42 45 49 51 52 54 56 59 61 62 62 62 62 63 63 63 62 62 62 62 61 60 59 58 56 56 56 56 55 54 54 53 52 52
19 17 18 19 21 20 16 17 16 19 15 14 14 21 31 36 40 45 51 52 54 56 58 62 62 62 62 63 63 64 63 63 64 63 62 61 62 61 59 58 56 56 55 56 54 54 54 53 52
17 17 17 19 22 20 17 15 16 17 19 18 14 15 25 30 34 39 48 52 54 56 58 61 61 62 62 62 62 62 62 63 63 63 63 62 62 62 61 60 59 58 57 56 55 55 54 53 53
18 16 17 22 23 18 19 18 19 19 19 18 19 16 19 22 23 26 29 38 51 54 57 59 62 62 62 61 62 62 62 63 63 63 63 63 62 62 62 61 61 60 58 56 56 55 54 54 53
15 15 16 15 22 21 15 9 18 20 17 19 19 20 20 22 22 22 25 26 28 34 47 56 60 63 62 62 61 61 62 61 61 61 62 62 63 62 62 62 61 60 59 58 57 56 55 54 54
12 16 21 22 12 7 8 -0 7 16 16 18 18 19 21 28 30 31 30 36 37 38 39 36 52 60 63 62 61 61 60 59 60 61 61 62 62 62 62 61 61 60 59 58 58 57 57 55 54
15 24 22 21 19 14 14 1 2 14 14 15 17 23 27 29 35 38 41 43 45 45 40 36 42 54 60 62 61 61 60 58 59 60 61 61 61 61 61 61 61 60 60 59 58 57 57 56 55
22 23 21 23 19 10 13 2 1 9 10 15 23 29 33 36 39 41 45 48 47 43 38 37 48 53 57 61 61 60 59 59 59 58 58 58 59 59 58 59 58 59 58 57 57 57 57 56 56
21 12 14 11 14 9 17 9 4 10 11 18 27 31 33 36 38 41 45 47 48 48 49 50 52 52 54 55 58 58 58 58 57 56 56 55 54 49 47 48 47 48 48 48 49 50 50 50 51
18 13 14 8 15 10 14 12 11 18 22 28 31 33 35 37 39 40 41 42 45 49 49 50 51 51 52 53 52 55 55 53 49 49 46 45 43 43 43 43 44 44 44 45 45 46 46 46 46
19 15 18 16 14 16 10 10 15 21 25 31 33 34 35 37 38 39 39 40 40 41 43 45 45 44 43 43 43 43 43 42 41 42 42 41 40 40 40 40 40 40 41 41 42 43 42 43 43
18 17 13 15 9 9 9 8 6 18 19 31 33 33 35 36 37 38 38 38 39 39 40 40 40 40 40 40 40 39 39 38 38 37 37 37 37 37 37 37 37 37 38 38 39 39 40 40 40
15 12 13 18 17 13 10 8 12 16 19 28 32 34 35 35 37 38 38 38 39 39 39 39 38 38 37 36 36 35 35 35 35 35 35 35 36 35 35 36 35 36 36 36 36 37 37 37 37
21 14 13 13 11 17 17 7 21 19 20 26 32 33 34 35 37 38 38 38 37 36 35 35 35 35 35 34 34 34 33 34 33 33 34 34 34 34 34 33 33 33 34 34 34 35 36 34 34

GFSSGP_sfc_dewp_093.txt.gz
Dewpoint
52 44 43 39 27 29 27 32 39 35 36 42 48 46 47 52 47 42 62 65 67 67 69 69 70 70 70 69 69 69 68 66 67 66 66 65 66 65 64 63 65 65 64 67 67 67 66 65 66
46 39 37 33 29 27 24 29 33 36 43 51 45 50 52 51 58 61 62 67 67 67 68 69 70 71 70 70 69 68 68 67 67 68 67 65 64 63 63 63 64 65 67 65 66 66 65 65 65
41 36 29 30 28 25 25 32 36 37 45 37 46 51 52 54 59 60 64 66 67 67 68 69 70 70 70 70 69 68 68 67 67 69 67 65 64 64 63 64 64 64 65 64 63 64 64 63 64
36 33 29 23 24 25 28 34 36 33 35 44 49 49 53 57 58 63 66 66 66 66 67 69 70 70 70 70 69 68 68 67 67 67 65 64 63 64 65 63 65 65 64 64 63 63 63 62 62
33 32 26 22 22 22 29 36 34 31 33 40 47 49 51 59 63 64 65 65 65 65 67 68 69 70 70 70 69 68 68 67 65 66 65 64 63 64 65 66 65 64 64 63 63 62 61 61 62
30 30 24 23 22 30 34 33 30 30 39 47 50 50 51 59 61 63 64 64 65 65 66 67 67 68 69 69 68 68 68 67 65 64 65 65 64 65 65 65 65 64 63 63 62 61 61 61 61
29 29 25 25 19 29 31 31 28 33 42 42 51 49 55 56 60 63 64 64 65 65 65 65 67 67 66 67 67 67 67 67 67 66 65 66 67 67 66 66 66 64 63 63 63 62 61 60 60
32 29 26 29 19 25 25 29 28 31 27 49 52 50 54 57 61 63 64 63 64 63 63 64 65 66 66 65 64 65 66 66 66 65 64 63 65 65 65 64 66 65 64 63 63 62 61 61 60
31 27 26 25 20 21 25 24 26 34 37 44 48 52 55 59 61 62 62 62 63 62 62 62 63 64 64 64 62 63 63 63 63 62 60 59 60 61 62 63 65 65 64 63 63 61 60 60 59
28 27 26 26 23 23 25 25 27 34 45 46 48 52 58 60 60 60 60 59 60 60 61 61 62 63 63 64 62 62 61 61 60 60 58 59 58 58 59 60 61 62 63 63 62 61 60 58 56
29 26 27 24 24 26 25 25 28 33 37 45 47 55 58 60 60 60 60 60 60 60 60 61 61 61 62 62 61 61 60 59 59 58 58 58 58 57 57 56 56 56 57 57 56 56 56 55 55
24 25 25 27 29 27 25 25 31 31 29 40 52 57 58 60 60 60 60 60 59 59 59 60 61 61 61 62 61 60 60 59 58 58 58 57 57 56 56 56 55 55 56 56 55 55 55 54 54
27 24 24 26 28 27 25 25 27 27 32 52 55 57 57 59 60 60 61 61 60 59 59 60 60 61 61 61 61 60 60 60 59 58 58 58 57 56 56 56 56 56 56 56 55 54 54 54 54
30 28 25 24 26 26 24 23 24 25 49 53 55 56 56 57 57 59 60 60 60 60 60 60 60 61 61 60 60 61 61 61 60 59 58 57 56 56 57 56 56 56 56 55 55 54 54 54 53
33 26 23 23 24 24 23 22 21 26 52 52 53 55 56 56 56 58 60 60 61 61 61 60 60 61 60 60 60 61 60 61 61 60 58 58 57 57 57 56 56 56 56 54 54 53 53 53 53
33 24 21 23 24 25 22 21 22 34 51 51 52 52 53 54 55 56 58 60 61 61 61 61 60 60 60 60 61 62 61 61 60 60 59 58 58 57 56 56 56 56 55 55 54 53 53 52 52
34 21 19 21 24 22 20 20 21 28 49 50 51 52 53 54 54 55 56 58 60 61 61 61 61 61 60 60 61 62 62 61 61 61 60 59 59 57 56 55 55 55 55 54 55 53 52 52 53
34 20 19 20 21 20 19 16 18 24 41 46 49 49 51 52 53 54 54 56 58 60 61 61 61 61 61 61 61 63 63 62 62 61 61 60 60 59 58 57 56 55 55 56 55 53 55 54 53
25 20 18 19 22 18 19 18 16 20 22 30 33 36 43 48 52 53 53 54 56 58 60 61 61 61 61 60 61 62 62 62 63 63 62 61 61 61 60 60 59 58 57 57 56 55 54 54 53
33 25 18 21 23 19 18 18 16 17 18 20 26 25 31 35 37 44 48 51 53 56 60 61 61 61 61 61 60 61 62 62 63 63 63 63 62 62 62 61 61 60 59 58 57 55 55 54 54
34 27 21 19 21 19 17 15 16 17 18 18 18 18 18 24 32 34 42 49 52 55 58 60 61 61 61 61 60 60 61 61 61 61 61 62 62 62 61 61 61 60 60 59 58 57 56 55 55
32 31 23 21 19 19 15 13 12 16 17 18 17 19 17 17 28 30 36 44 50 53 56 60 61 61 61 61 60 58 58 59 60 61 61 62 62 62 62 61 61 60 60 59 58 58 57 56 54
34 25 26 26 19 14 13 7 10 13 15 17 18 18 20 18 23 26 30 35 35 40 44 54 59 60 61 61 61 59 58 59 60 60 60 60 60 61 60 60 59 58 57 56 56 55 54 54 53
27 31 27 26 21 13 16 11 10 8 12 15 18 18 19 23 24 28 34 40 43 42 39 37 53 60 61 61 60 60 59 58 58 59 59 58 54 51 51 50 50 49 49 48 47 47 46 46 48
32 32 25 24 21 14 15 8 13 5 12 13 15 18 20 28 33 37 43 45 44 42 40 38 41 55 61 61 60 61 60 58 58 58 57 53 49 47 45 45 45 43 42 43 43 43 42 42 41
33 31 22 17 16 14 15 10 11 13 12 20 20 18 26 33 37 40 44 45 45 44 43 41 45 50 59 61 61 59 59 58 56 55 52 47 44 43 42 40 39 38 38 38 39 39 39 37 37
31 29 27 17 16 15 12 13 11 16 19 27 26 28 28 32 38 42 45 45 45 46 46 46 48 51 57 59 58 54 53 51 47 44 43 41 40 38 37 36 35 35 35 36 37 36 34 33 34
28 28 18 18 15 6 4 7 11 12 15 24 29 29 31 36 39 41 43 44 45 45 45 45 46 49 49 49 49 48 45 43 41 40 38 37 36 35 34 33 33 32 33 33 34 33 31 30 31
29 23 19 17 19 13 9 8 11 9 12 18 26 30 32 36 39 40 40 41 43 42 42 42 42 42 42 43 40 40 39 37 36 36 35 34 34 33 32 31 31 30 29 30 31 31 29 28 28
25 23 20 18 13 14 17 10 11 11 13 22 28 33 36 37 38 39 39 39 40 40 40 40 38 38 38 38 37 36 35 34 33 33 32 32 31 31 30 29 29 28 27 28 29 27 28 27 27

GFSSGP_sfc_dewp_096.txt.gz
Dewpoint
50 43 41 37 26 28 29 33 38 36 36 46 49 44 48 51 47 42 62 65 67 67 69 69 71 71 69 69 69 68 68 67 66 65 66 65 64 64 64 64 63 67 67 67 66 66 66 66 65
43 38 36 33 26 24 24 29 34 36 44 51 48 50 51 50 57 60 61 67 67 68 68 69 70 70 69 69 69 69 68 68 67 66 65 64 64 63 63 63 68 67 66 66 66 65 65 65 64
41 34 30 29 28 25 24 30 35 41 50 39 48 52 52 54 59 60 64 66 67 67 68 69 70 70 70 69 69 68 68 69 68 66 65 64 63 63 63 62 65 66 64 64 64 64 64 64 64
36 32 28 23 27 26 24 33 36 40 38 47 50 50 53 57 60 63 66 66 66 66 67 68 70 70 70 69 68 68 68 68 67 65 64 64 62 62 64 65 65 65 64 63 64 63 63 63 63
34 31 25 22 21 22 24 35 35 33 35 44 47 49 51 59 64 65 65 65 65 65 66 68 69 70 70 69 68 68 67 67 66 65 63 64 62 63 66 64 64 64 63 63 62 62 62 62 63
30 29 23 22 22 27 33 35 32 31 40 47 51 50 51 60 63 64 64 64 65 65 66 67 67 68 69 68 68 68 67 66 66 65 65 64 65 65 66 64 63 63 63 62 61 61 61 61 61
30 29 24 21 22 30 33 32 29 34 44 44 52 50 55 59 62 63 63 64 65 65 65 66 67 67 66 66 67 67 67 66 66 66 66 66 67 66 66 66 64 63 63 62 62 61 61 61 61
32 29 25 30 21 28 28 29 29 37 35 51 52 48 53 58 62 63 64 63 63 63 64 65 65 66 65 64 64 65 66 66 66 65 64 64 65 65 65 64 65 64 63 63 62 62 61 61 60
31 27 25 24 21 25 28 25 28 36 47 47 50 51 53 60 63 61 60 60 61 63 64 65 65 64 64 63 61 63 63 63 62 62 60 60 60 61 62 63 65 65 64 63 62 61 61 59 59
28 27 27 27 22 21 26 25 27 36 44 47 47 55 59 61 61 59 58 58 59 60 62 64 65 63 63 63 61 61 61 60 59 58 58 58 58 58 60 60 61 62 62 62 62 60 59 57 55
30 26 28 26 25 25 26 24 32 37 40 43 47 55 58 59 59 58 57 57 58 59 60 62 63 64 61 61 60 59 59 58 58 57 58 58 57 56 56 56 56 55 56 56 56 55 56 54 54
26 25 26 28 28 27 25 27 30 35 33 36 48 57 58 58 58 58 57 57 58 59 59 60 62 63 61 60 59 59 58 58 57 57 57 57 56 55 55 55 54 55 56 55 55 55 54 54 54
28 30 27 26 27 27 26 25 27 32 33 49 55 58 58 58 58 59 59 58 58 58 58 59 60 61 61 60 60 59 58 58 57 57 58 57 56 55 55 55 55 55 55 55 55 54 54 53 54
33 36 27 25 24 26 24 22 26 28 51 53 56 56 58 58 58 59 59 59 58 58 58 59 59 61 61 60 59 59 59 59 58 57 58 57 57 56 56 56 56 55 55 55 54 54 53 53 53
38 35 32 24 25 25 23 21 21 27 51 53 54 55 56 58 58 59 60 60 59 59 59 59 59 60 60 60 60 60 60 60 59 59 58 57 56 55 55 55 55 55 55 54 53 53 53 52 52
41 38 34 29 24 25 23 22 23 40 50 51 52 53 55 56 56 58 60 60 60 60 60 59 60 60 60 59 60 60 60 60 60 60 59 58 57 56 55 55 55 55 55 54 53 53 53 52 52
39 38 36 35 25 23 21 21 22 41 49 49 50 51 53 54 54 56 59 60 61 61 60 60 60 60 60 60 60 61 60 61 61 61 60 58 58 57 56 55 55 55 54 54 55 54 52 54 54
37 36 26 34 25 21 20 18 17 26 48 48 50 50 51 53 55 55 57 59 61 61 61 60 60 60 60 60 60 61 61 62 62 61 61 60 60 59 57 57 56 55 55 55 56 55 55 55 55
38 38 35 21 22 20 20 20 21 20 30 44 48 50 51 52 54 55 55 57 58 60 60 60 60 60 60 59 60 61 61 62 62 62 61 61 60 60 59 59 59 58 57 57 57 55 55 52 55
34 33 33 22 22 20 19 19 21 19 21 34 42 45 48 48 48 51 53 54 56 58 60 60 60 61 61 60 60 61 62 62 62 63 62 62 62 62 62 61 60 60 59 58 58 56 56 55 55
35 33 32 23 22 20 17 17 18 17 18 19 21 34 39 45 45 45 48 52 54 56 58 60 61 61 61 61 60 60 61 61 61 61 62 62 62 62 61 61 61 60 60 60 59 58 56 55 55
34 34 31 26 23 26 17 16 19 18 17 17 18 19 22 23 29 38 41 46 51 53 56 59 60 61 61 61 61 60 60 59 59 61 62 62 62 62 62 61 61 60 60 59 58 57 57 55 52
35 31 30 31 26 22 24 13 17 13 16 17 18 18 19 19 19 25 33 41 47 52 55 58 60 61 61 61 61 60 58 57 59 60 60 60 60 60 60 60 59 57 56 55 55 53 51 49 51
35 35 35 35 33 27 28 18 19 15 13 16 17 18 18 19 20 21 28 35 39 44 48 54 58 59 60 60 61 60 59 58 58 58 59 57 54 52 52 51 50 50 49 48 47 45 44 44 43
36 35 28 27 26 24 21 16 21 15 14 15 16 17 19 19 21 23 31 37 40 41 41 43 54 59 60 60 60 60 59 59 58 58 58 54 50 48 47 46 45 44 43 43 42 40 39 38 37
36 34 27 22 22 21 14 13 18 15 12 13 14 16 18 21 26 28 31 38 42 41 41 39 39 53 59 60 60 60 60 59 58 58 56 53 49 45 42 41 39 38 38 38 37 36 35 34 34
34 33 26 19 19 19 15 15 15 15 15 19 21 23 20 23 28 31 39 43 43 43 43 41 40 45 55 59 60 60 59 57 54 51 49 46 43 40 38 36 35 35 35 35 33 32 31 31 31
36 34 30 25 16 12 10 10 17 13 11 14 21 25 24 25 32 38 41 43 44 44 44 45 44 46 50 56 58 56 54 50 48 47 43 41 38 36 34 32 31 32 32 32 30 29 28 28 30
34 33 31 28 20 15 10 8 12 12 13 10 13 21 25 29 34 39 41 43 43 43 44 44 45 48 49 50 49 48 46 45 43 41 38 36 35 33 31 30 29 29 29 30 28 27 26 26 26
34 32 31 27 20 15 18 13 10 11 11 13 17 26 31 34 38 39 40 40 41 42 42 44 43 46 45 44 44 43 41 40 37 35 34 33 31 30 29 28 27 26 27 27 25 25 26 25 26

GFSSGP_sfc_dewp_102.txt.gz
Dewpoint
47 40 40 40 30 29 29 31 35 36 38 41 45 46 45 49 46 43 62 63 63 65 66 68 70 69 68 68 68 68 68 68 66 66 66 65 67 68 68 69 68 67 65 66 65 65 64 63 62
37 37 40 37 28 26 27 32 34 36 45 47 49 50 48 50 57 60 61 63 63 64 66 66 69 69 68 69 69 68 68 67 65 65 65 65 67 68 67 67 67 66 65 65 65 65 63 62 62
39 32 34 32 27 27 25 31 35 45 45 45 47 52 51 54 58 60 62 64 65 65 65 67 69 69 68 69 69 69 68 67 65 65 65 63 66 67 67 67 66 65 64 64 64 64 63 63 62
37 35 31 27 24 25 24 31 37 45 42 45 47 48 55 59 59 61 63 64 63 63 64 68 70 70 69 69 69 69 68 66 66 65 65 64 65 65 67 65 65 65 64 64 64 64 63 62 61
36 35 28 26 23 25 24 30 40 41 39 46 48 48 54 60 62 63 62 62 61 63 64 67 69 69 69 69 70 69 68 67 66 66 64 64 65 66 66 65 64 64 63 63 63 62 62 62 62
34 33 27 25 23 24 31 34 42 36 41 47 45 49 55 61 63 63 62 62 63 63 64 66 67 68 68 69 69 68 67 66 66 65 66 66 65 65 64 64 63 63 62 62 62 62 62 61 61
34 32 28 25 24 25 32 38 39 36 40 43 49 46 55 61 63 63 62 62 63 63 64 66 66 65 66 67 67 67 67 67 66 66 66 67 67 66 65 65 63 62 62 62 62 61 61 61 61
34 32 28 25 22 23 35 34 33 36 38 50 51 43 52 58 64 64 63 62 62 65 64 66 66 63 63 65 64 65 66 66 66 66 65 64 65 65 65 64 64 63 62 62 62 62 61 61 60
33 31 28 27 24 24 34 31 33 42 45 49 50 47 54 61 64 63 62 61 62 63 66 66 66 64 62 63 62 63 63 63 63 63 62 62 62 62 62 63 64 64 63 62 61 60 59 59 58
32 33 30 28 25 25 33 32 32 39 44 45 48 55 59 62 63 61 60 59 59 61 65 66 65 63 62 62 63 61 61 60 62 62 61 61 61 61 60 59 60 60 61 61 60 59 58 57 54
32 32 30 25 27 25 28 30 33 34 39 37 43 52 59 61 62 60 59 58 59 60 65 66 64 63 61 61 61 61 59 59 60 62 62 61 60 60 59 58 56 57 57 55 56 56 55 56 55
31 27 27 28 28 26 26 28 30 34 29 38 43 53 58 59 59 59 58 57 57 60 61 65 64 63 61 59 58 59 58 57 58 59 60 58 57 57 56 55 58 60 59 59 58 57 57 56 56
31 27 27 27 27 27 27 27 28 32 33 39 48 55 58 58 59 59 59 56 56 58 60 63 64 63 61 59 58 57 57 57 56 59 60 59 58 57 57 58 58 59 59 58 58 57 56 56 56
33 32 31 30 28 26 26 25 28 28 36 44 52 54 58 58 58 58 59 56 55 58 60 61 63 63 61 59 58 57 56 56 57 58 59 59 58 58 58 59 59 59 59 58 58 57 57 57 57
36 33 36 35 30 26 26 27 24 27 42 43 49 52 56 58 58 58 59 57 54 56 58 61 61 62 62 60 59 58 57 57 58 59 60 59 59 58 58 59 59 59 59 59 59 58 57 56 56
35 35 33 37 33 32 30 31 31 29 40 39 45 50 54 57 58 59 58 57 54 53 56 60 61 62 62 61 60 59 58 57 58 59 60 60 59 58 58 59 59 59 59 58 58 57 56 56 56
40 35 34 35 37 37 31 32 28 30 39 35 43 48 52 54 57 58 58 58 57 53 54 56 59 61 62 61 61 60 60 59 59 60 61 60 59 58 58 58 59 59 58 58 57 57 57 57 55
37 35 36 34 35 35 38 36 27 28 31 34 37 46 50 53 55 57 58 59 58 57 55 55 56 57 59 60 60 60 60 60 60 61 62 61 59 59 59 59 59 58 57 57 57 58 59 58 57
37 36 34 37 33 36 37 37 34 33 28 29 36 41 48 51 53 56 59 59 60 60 58 57 56 57 57 58 58 59 59 60 61 62 62 61 60 59 59 59 58 58 58 58 58 58 58 58 57
38 37 36 35 32 36 38 38 39 40 38 31 28 32 42 48 52 55 57 59 60 60 60 60 58 56 57 58 59 60 60 60 61 63 62 62 61 60 60 59 60 60 60 59 59 59 59 58 56
40 38 38 37 35 33 26 33 37 37 39 39 28 28 35 45 48 52 55 57 59 60 61 61 60 59 58 58 60 61 61 62 62 62 62 62 62 61 61 60 61 61 62 61 61 60 58 57 56
38 39 38 33 35 35 32 32 35 34 35 36 28 25 31 41 46 48 52 55 57 59 61 61 61 61 60 60 60 60 60 60 61 60 62 63 62 62 62 62 62 62 62 61 60 60 59 58 54
37 37 36 35 35 34 32 31 35 34 30 32 34 29 27 31 41 47 50 53 55 58 60 61 61 61 61 61 60 60 60 61 60 61 61 62 63 63 63 63 62 62 61 60 58 57 56 55 54
38 37 37 37 36 31 36 32 33 33 32 32 31 26 26 25 30 40 48 52 53 57 58 60 60 61 61 61 61 61 60 61 61 61 60 61 61 61 62 61 60 59 57 57 54 53 53 52 50
38 37 31 29 30 30 25 32 33 34 34 31 30 29 26 26 27 29 37 46 49 53 56 57 58 59 60 61 61 61 61 61 61 61 60 59 58 57 58 57 54 53 51 50 49 49 47 45 41
37 37 30 25 25 25 27 28 29 32 34 34 25 23 25 26 27 28 30 36 42 48 51 54 56 57 59 60 61 62 62 61 61 61 61 59 58 57 55 53 50 48 46 44 44 43 40 39 38
36 36 33 27 22 23 24 25 24 28 25 19 28 32 27 23 25 27 28 28 31 36 44 51 53 55 57 59 60 61 61 61 61 61 61 59 58 52 50 48 45 43 41 39 37 36 34 35 35
37 35 31 35 29 25 23 21 23 27 26 25 20 21 26 27 23 24 25 28 28 31 35 42 49 53 56 58 59 60 60 60 61 61 59 57 53 49 45 42 41 38 37 35 33 34 32 32 32
35 34 35 31 32 26 23 22 22 20 20 21 19 19 20 22 24 25 25 29 33 37 39 39 42 48 54 57 58 59 60 60 60 59 57 54 48 46 42 39 37 35 32 31 29 30 30 29 28
37 36 34 29 28 26 24 24 19 13 14 17 17 18 19 22 28 28 29 34 38 40 41 41 42 44 48 55 57 58 58 57 56 54 52 48 46 42 38 36 34 31 29 28 27 25 25 26 27

GFSSGP_sfc_dewp_105.txt.gz
Dewpoint
50 38 37 39 34 32 32 31 30 33 36 39 44 42 43 48 47 49 59 60 63 64 66 66 70 68 67 67 68 69 69 68 67 66 65 67 68 68 67 67 68 67 66 65 64 63 63 62 62
38 35 38 34 32 31 30 31 31 33 41 43 46 46 44 50 55 59 59 61 62 64 65 65 69 69 67 68 69 68 68 67 66 65 65 67 68 68 67 66 67 65 65 64 64 63 63 62 62
38 33 33 32 31 30 30 29 32 41 43 42 45 50 49 53 57 59 60 60 61 64 65 66 69 69 68 68 69 68 67 66 66 65 66 68 67 67 67 66 65 64 63 63 64 63 63 62 62
38 34 30 27 30 31 27 30 36 41 41 44 43 45 53 58 58 59 60 61 62 63 65 68 69 68 68 68 69 68 67 66 65 64 64 64 66 66 66 65 65 64 64 64 63 63 62 62 61
36 33 28 29 30 26 24 27 36 39 37 41 44 45 52 58 60 61 60 61 61 60 63 66 69 69 69 69 69 68 67 66 66 65 65 65 66 66 65 64 64 63 63 63 62 62 62 62 61
37 36 29 28 29 24 25 28 35 38 38 43 43 45 53 61 61 61 60 59 59 60 62 66 66 68 69 69 68 67 67 66 66 65 66 65 65 65 64 63 63 63 62 62 62 62 62 61 61
37 32 30 30 29 25 26 32 37 37 38 41 43 38 55 59 62 60 58 59 60 60 61 65 64 65 66 67 67 67 67 66 66 66 67 66 66 66 65 65 63 62 62 62 61 62 62 61 60
35 33 31 29 27 28 32 35 37 36 37 45 44 36 47 59 63 62 61 61 60 59 61 65 64 62 62 64 64 65 66 66 65 65 65 64 64 65 64 63 64 62 62 62 62 61 61 60 60
34 32 30 30 28 27 33 34 34 40 41 43 46 41 50 60 63 62 61 61 61 61 60 66 64 61 60 62 63 63 63 64 63 63 62 62 60 60 62 63 64 63 62 62 61 60 58 59 59
34 33 31 29 27 26 31 33 33 36 39 42 46 51 57 61 62 61 60 59 59 60 61 65 63 61 59 59 61 60 61 61 60 60 60 59 59 60 59 59 60 61 62 61 59 57 58 57 54
35 33 33 27 27 25 27 33 32 34 34 35 40 49 58 60 61 59 59 58 58 59 62 64 64 61 59 58 58 58 57 59 60 60 60 60 60 60 58 58 57 57 57 55 57 56 55 56 56
34 35 32 28 28 26 26 29 31 33 32 36 36 48 56 59 60 58 58 58 58 59 61 64 63 62 58 57 57 56 55 57 58 59 59 58 56 57 56 55 58 59 58 58 58 57 57 56 55
35 33 28 27 28 26 27 26 27 28 32 35 41 51 55 58 59 59 59 58 58 58 59 62 63 61 58 56 55 55 55 55 56 58 58 57 56 57 56 57 57 58 58 57 57 57 56 56 56
35 34 28 28 31 28 28 27 27 27 28 35 45 50 54 57 58 58 58 58 54 57 58 61 62 62 59 55 55 55 55 55 55 57 58 58 57 57 58 59 58 58 58 58 57 57 57 56 57
34 33 31 31 35 36 32 34 26 27 34 35 42 47 52 56 58 58 58 57 52 55 58 60 62 62 60 56 55 55 55 54 56 57 59 59 58 58 58 58 58 59 59 59 58 57 56 55 55
34 33 32 34 33 33 34 36 32 30 30 32 36 41 48 53 56 56 58 58 52 51 56 59 61 62 62 58 57 56 55 55 57 58 59 59 59 57 58 58 58 58 59 58 57 56 54 55 54
36 34 32 33 36 34 34 35 37 30 29 31 31 37 43 49 54 55 57 58 55 49 52 58 61 61 61 61 58 58 57 56 56 58 59 59 59 58 58 58 58 59 58 58 57 55 57 56 54
36 34 34 33 35 37 35 35 37 33 30 30 29 32 40 45 50 54 56 58 56 50 50 54 59 60 61 62 60 59 59 58 57 58 60 60 60 59 59 59 59 59 59 58 58 58 60 59 58
38 36 34 35 34 36 36 36 38 38 38 35 30 29 33 42 46 51 55 57 58 54 50 52 55 56 58 60 59 58 58 58 59 60 61 61 60 60 60 59 58 58 58 59 59 59 59 59 58
40 38 36 36 34 36 36 36 37 38 39 39 35 33 30 34 43 49 54 57 58 57 55 53 54 54 56 57 58 57 57 58 58 61 62 61 60 60 59 60 59 59 59 60 59 59 59 58 57
39 39 36 35 35 35 35 35 36 38 39 40 40 39 34 30 37 45 51 55 58 59 59 57 56 55 55 56 56 57 59 60 59 61 62 62 61 61 61 60 60 61 61 61 61 60 59 58 57
37 40 38 36 37 36 36 34 36 37 37 39 40 40 39 34 32 39 47 53 57 59 60 60 60 58 57 56 56 58 59 59 60 61 62 63 62 61 62 61 61 61 62 61 61 61 60 58 56
39 40 40 39 37 36 35 33 34 34 34 36 35 39 41 37 33 35 43 51 54 59 60 61 61 61 59 58 57 59 60 60 61 61 61 61 62 62 62 62 62 62 62 61 60 59 58 58 56
39 38 37 37 37 33 36 33 32 31 34 35 35 34 39 36 32 34 41 49 53 57 60 61 61 61 61 60 60 59 60 60 61 61 61 62 62 62 62 62 63 62 61 59 58 56 56 55 54
39 38 33 32 32 31 29 34 32 34 35 35 35 35 35 37 35 32 36 45 51 55 58 60 61 60 61 61 61 61 61 61 61 61 61 61 61 61 62 62 60 59 57 55 53 53 53 52 49
38 36 28 23 24 23 30 29 30 34 34 34 35 33 30 33 32 32 33 41 50 53 56 58 58 59 60 61 61 61 61 61 61 61 61 61 60 59 61 60 58 56 53 50 49 48 47 46 43
37 35 34 28 26 27 25 27 28 31 30 29 27 30 34 30 29 31 32 33 43 50 52 56 56 57 58 59 60 61 61 61 61 61 62 61 61 59 59 57 54 51 49 46 44 42 40 42 41
37 36 33 35 30 25 21 25 25 29 28 27 28 28 26 28 33 29 27 30 33 37 45 51 54 55 56 58 59 60 61 61 61 61 61 61 60 57 55 53 50 46 44 42 40 38 38 37 38
36 35 35 33 32 26 23 20 25 23 11 18 20 20 19 20 22 25 28 28 31 34 37 39 46 50 53 55 57 59 60 60 61 61 61 61 59 54 52 50 47 44 40 38 37 36 35 34 33
36 34 33 29 29 29 28 25 17 15 17 20 18 20 23 25 26 28 30 30 31 35 37 38 38 41 47 52 56 58 59 60 60 60 60 59 55 52 51 48 44 40 36 35 33 31 30 30 30

GFSSGP_sfc_dewp_111.txt.gz
Dewpoint
55 43 39 39 33 33 32 31 32 34 37 42 46 47 53 54 53 50 63 65 66 67 68 69 69 69 70 70 70 70 69 68 68 68 68 68 68 68 67 66 66 63 63 63 63 63 62 62 62
53 40 38 37 30 34 33 30 35 38 40 45 47 49 52 54 58 59 62 65 66 66 67 67 68 69 69 70 70 69 69 67 68 68 69 68 67 66 66 64 63 62 63 63 63 63 61 61 61
45 38 34 33 32 31 30 34 40 41 43 44 46 53 54 55 58 58 63 65 65 66 66 67 69 69 69 69 69 68 68 68 67 68 69 68 67 66 65 64 63 62 63 63 63 62 61 61 61
35 38 32 28 31 33 30 40 41 40 41 43 50 52 56 58 58 60 64 64 65 66 66 68 69 69 69 68 67 66 67 68 67 69 68 67 67 66 65 63 62 63 63 63 63 62 62 61 61
37 37 30 28 28 30 26 41 40 38 40 42 45 52 54 60 59 61 64 65 64 65 67 67 69 69 69 68 67 65 63 66 66 68 67 66 66 65 64 64 63 63 63 63 62 62 62 61 61
36 35 29 28 29 31 26 30 39 38 41 43 49 53 54 60 59 60 62 64 64 64 67 67 66 67 68 68 68 67 66 66 66 67 67 66 65 64 64 63 63 63 63 62 62 62 61 60 60
36 37 31 31 31 27 29 31 32 38 43 43 44 52 56 58 59 60 61 64 64 65 66 66 67 66 66 66 66 66 66 66 67 67 67 66 65 65 64 64 62 62 62 62 62 61 61 60 59
35 36 34 33 32 31 32 35 36 38 41 44 44 52 54 58 60 61 59 63 64 64 64 65 65 65 64 64 63 64 65 66 66 65 64 64 64 64 64 63 63 62 62 61 61 60 60 59 58
44 33 34 34 30 32 34 33 37 40 42 44 49 51 55 59 62 60 59 61 64 64 63 64 64 65 64 63 62 62 63 64 63 62 61 61 61 62 62 62 63 63 62 60 59 59 59 59 58
45 38 37 40 27 26 33 33 36 37 41 45 56 59 60 61 60 59 58 58 60 63 63 63 62 64 64 62 62 62 61 61 62 61 61 62 61 61 61 60 61 62 61 61 59 59 59 58 56
45 41 37 31 30 27 31 33 35 35 38 43 51 58 59 59 59 59 60 59 59 62 63 63 61 63 62 63 62 62 62 61 61 61 61 60 59 58 58 57 57 56 57 56 57 57 56 55 55
36 44 45 39 32 29 29 28 32 34 34 35 55 59 59 58 59 58 60 59 59 59 63 64 63 61 60 61 60 60 61 60 60 60 60 59 58 58 58 57 57 57 56 57 57 56 56 55 55
44 42 38 34 30 28 30 27 28 26 32 40 57 59 58 57 57 59 60 59 59 58 62 64 64 58 58 59 59 58 58 59 60 60 60 59 57 56 56 57 58 58 58 57 57 56 56 56 56
48 45 41 33 28 30 31 33 32 30 32 49 57 57 56 56 56 58 59 59 59 59 59 64 64 60 57 57 57 56 56 58 58 59 58 57 56 56 57 57 58 58 58 57 57 57 56 56 56
44 40 40 34 29 31 36 35 37 33 33 44 50 55 56 56 56 57 59 58 58 58 58 62 63 62 57 56 56 56 56 56 57 58 58 58 57 56 58 58 58 58 58 58 57 57 56 56 56
42 39 37 40 29 31 36 32 38 40 33 32 43 49 56 57 57 57 59 57 58 58 58 59 63 62 60 55 55 55 56 56 57 58 58 58 58 58 58 58 58 59 58 58 57 56 55 55 52
34 33 33 33 31 33 36 35 37 39 32 29 30 41 51 55 57 57 58 58 58 58 58 60 62 62 62 60 55 55 55 56 56 58 59 58 58 58 57 58 58 58 58 57 56 55 55 55 53
33 35 34 32 33 33 35 35 35 37 32 29 29 29 44 53 56 57 58 59 58 57 57 60 61 61 62 61 59 56 55 55 57 58 59 59 59 58 58 58 58 58 58 57 56 55 55 55 53
37 36 36 36 35 33 32 32 33 34 31 29 29 30 30 48 54 56 58 58 58 54 56 58 60 61 61 60 59 57 55 55 56 58 58 59 59 59 58 58 58 58 57 57 56 55 54 55 56
41 38 35 37 35 35 35 34 35 35 35 36 37 38 33 30 45 53 55 58 58 54 55 57 59 60 61 60 59 59 57 57 56 57 58 59 59 59 59 58 58 58 57 56 56 55 55 55 55
41 39 38 35 34 35 35 35 36 37 37 38 39 39 40 35 31 51 53 56 57 56 51 56 58 59 60 60 60 59 58 58 58 58 58 59 60 60 59 59 58 58 57 57 56 56 56 55 55
38 41 40 37 35 33 37 32 35 36 36 37 38 39 39 40 32 39 52 54 55 57 51 50 57 59 60 60 60 59 57 57 57 57 58 60 61 60 60 59 59 58 58 57 57 57 57 56 54
38 42 40 38 36 37 36 34 35 36 35 37 38 38 39 41 40 34 49 53 55 57 54 50 52 58 59 59 59 59 57 57 57 58 58 59 61 60 60 59 59 59 58 58 58 58 58 58 55
40 39 38 38 38 33 36 34 34 35 35 35 36 38 39 40 40 40 38 51 54 56 57 55 51 52 56 57 57 57 57 56 56 58 58 59 60 61 60 60 59 59 59 58 58 58 58 58 56
40 38 33 32 32 29 35 34 35 35 35 36 36 36 37 38 41 41 36 44 52 55 57 58 55 52 53 54 54 56 56 55 56 57 58 59 60 60 60 60 59 59 59 58 58 58 58 57 56
37 36 30 24 26 26 31 30 34 38 37 37 38 37 37 37 33 41 40 37 50 54 56 57 58 57 56 54 54 55 55 55 56 58 59 60 60 61 61 60 60 59 59 58 58 58 57 55 53
36 36 34 27 19 24 27 28 30 32 37 36 34 32 30 33 35 31 38 36 44 51 55 57 58 59 59 58 57 56 55 55 56 57 59 60 60 60 60 60 60 59 58 58 57 57 55 54 50
36 36 32 31 20 20 24 25 25 29 31 31 29 30 30 27 27 30 28 31 36 47 53 55 57 58 59 59 60 59 58 57 56 58 59 60 60 60 59 59 59 59 57 55 53 51 48 48 44
36 35 34 31 30 23 20 22 27 26 27 23 20 19 19 20 22 25 27 29 29 31 47 52 55 57 58 59 60 60 60 60 59 58 59 60 59 59 58 58 58 56 55 53 53 50 47 45 40
36 35 34 29 27 28 27 23 26 15 17 21 19 23 24 24 26 28 30 32 31 30 30 33 40 50 54 55 58 58 59 60 60 60 60 59 59 59 59 58 57 55 53 51 51 48 45 43 39

GFSSGP_sfc_dewp_114.txt.gz
Dewpoint
57 49 39 40 34 33 31 31 32 35 37 44 47 51 53 55 51 47 63 65 65 68 68 68 70 71 70 70 69 69 70 69 69 68 68 68 67 66 64 63 62 63 63 63 62 62 63 63 62
52 41 38 35 32 33 33 32 33 37 40 48 52 53 53 53 58 62 63 66 67 67 67 67 69 70 69 70 70 69 68 69 68 69 68 67 66 65 64 63 63 63 63 63 61 62 62 62 62
38 38 34 33 31 31 31 37 39 42 44 45 50 54 54 55 58 61 64 66 66 66 66 67 69 70 69 69 69 68 69 69 68 68 67 67 66 64 64 62 62 62 63 63 62 62 61 62 62
36 37 31 29 31 33 32 40 41 40 42 47 52 53 56 59 58 63 65 65 66 66 66 68 69 69 68 68 68 68 68 67 68 68 68 66 65 64 63 62 63 63 63 63 62 61 62 62 62
38 36 28 27 29 30 39 41 40 38 41 43 50 53 54 59 61 64 65 65 65 65 66 68 69 69 68 67 67 68 68 69 69 69 67 66 65 64 63 63 63 63 62 62 62 61 61 61 62
36 34 29 27 29 31 31 40 38 39 41 47 53 53 54 59 62 63 65 65 65 65 66 67 66 67 68 67 67 67 66 68 68 68 66 65 64 64 63 63 63 63 62 62 62 61 60 61 61
35 36 30 31 30 30 26 34 37 41 43 43 53 52 55 56 60 63 64 64 64 66 66 66 66 66 65 66 66 66 67 67 67 67 67 66 65 64 63 63 62 62 62 62 61 60 60 59 60
35 36 34 33 31 31 32 35 37 41 41 44 54 52 53 58 59 61 64 63 64 65 65 64 65 65 65 64 63 64 65 66 66 65 65 64 64 64 64 63 63 62 61 61 60 60 59 59 59
44 33 35 37 27 29 33 33 38 41 43 50 54 54 54 59 60 59 63 63 63 63 64 64 64 64 63 63 61 62 64 64 63 62 62 61 61 61 61 61 63 62 62 60 60 59 58 58 58
42 36 37 42 31 25 32 33 36 40 43 48 54 58 58 60 59 58 62 62 62 62 62 64 63 63 63 62 62 61 62 62 61 60 60 61 61 61 61 60 61 62 61 61 59 58 59 57 55
44 39 40 33 30 29 30 34 36 40 39 45 51 57 58 58 58 58 60 62 62 62 62 62 63 63 62 61 61 61 60 60 60 60 61 61 59 58 58 57 58 57 57 56 56 57 56 55 55
41 46 47 47 37 29 27 29 32 35 35 38 52 58 58 58 58 58 59 59 62 62 62 62 62 63 62 62 61 60 60 59 59 60 60 59 58 56 55 55 55 55 56 56 56 56 56 55 55
41 42 47 49 39 28 28 28 28 26 28 46 58 58 58 58 58 57 58 59 60 62 63 63 61 62 61 61 60 59 59 59 59 59 60 58 57 56 57 56 56 56 57 57 56 56 56 55 55
46 46 44 42 33 29 29 33 34 29 38 55 58 57 57 57 57 58 59 58 59 60 62 64 62 61 60 60 59 58 58 59 59 59 59 58 57 56 56 56 57 57 57 57 57 56 56 56 56
46 44 45 44 34 29 34 32 35 31 47 54 55 55 56 57 57 58 58 58 59 59 59 62 63 59 58 58 58 57 57 58 58 59 58 57 56 55 56 57 57 57 58 57 57 56 56 56 57
43 40 36 38 33 30 33 30 34 37 34 48 52 54 55 56 56 57 58 59 59 59 58 61 63 61 57 57 57 57 56 57 57 58 58 57 57 56 57 57 58 58 58 57 57 55 55 54 52
36 34 35 37 34 31 34 31 35 37 39 34 43 50 54 55 56 57 57 59 59 59 58 59 62 62 57 56 56 56 56 56 56 58 58 57 58 57 57 58 58 58 58 57 57 55 54 54 52
32 32 34 36 34 32 35 32 34 36 38 35 30 37 49 54 56 57 57 58 58 58 58 58 61 62 61 57 55 55 55 55 56 57 58 58 58 58 57 58 58 58 57 56 56 55 55 54 52
36 35 35 35 36 31 32 33 34 36 35 34 30 30 35 49 54 57 57 57 58 58 58 58 59 61 61 60 56 55 54 54 55 56 58 58 58 58 57 57 57 57 57 56 56 55 54 54 54
39 36 35 37 36 34 33 32 32 34 34 33 32 31 31 33 49 55 57 58 58 56 57 58 59 60 61 61 59 56 55 55 54 56 57 58 58 58 58 57 57 57 56 56 55 54 54 53 55
39 37 36 36 35 36 35 34 35 37 37 36 36 33 33 34 33 48 55 57 58 58 56 57 59 60 60 60 60 58 57 57 56 56 57 58 59 58 58 58 58 57 57 56 55 55 54 53 54
35 40 40 39 35 32 35 30 34 35 36 37 37 38 38 39 39 36 51 55 57 58 56 56 57 59 60 60 59 58 57 56 56 56 56 57 59 59 59 58 58 58 57 56 56 56 55 54 54
35 40 40 39 36 37 36 34 34 36 35 36 37 38 38 39 40 39 41 52 56 58 57 55 56 57 58 59 59 59 58 58 57 57 57 57 59 59 59 59 58 58 57 57 56 55 56 56 54
40 39 38 36 37 33 34 34 31 33 36 36 37 38 38 39 40 41 38 49 53 57 57 53 53 56 58 59 59 59 58 58 57 57 57 57 58 60 59 59 59 58 58 57 57 56 56 56 56
40 37 31 31 30 25 30 33 31 35 37 37 37 37 37 39 40 40 41 43 51 55 56 55 51 53 57 58 59 59 58 58 57 56 57 57 58 58 60 60 59 58 58 58 57 57 57 56 57
37 35 29 24 25 24 34 32 33 37 37 38 37 37 37 38 38 38 41 40 48 53 55 56 52 51 54 57 58 58 58 58 57 56 56 57 57 58 59 60 60 59 58 58 57 57 57 57 57
35 35 33 26 18 24 28 29 30 32 34 37 38 38 37 34 33 35 33 42 40 51 54 56 57 54 52 53 55 55 56 57 56 56 56 57 57 58 59 59 59 59 58 58 57 57 56 56 56
36 36 32 33 22 19 23 25 26 27 31 32 34 34 33 32 29 28 30 33 38 49 54 56 57 57 56 54 53 53 54 55 55 55 55 57 58 59 59 59 59 59 58 58 57 57 57 56 55
37 34 35 32 28 23 20 21 28 28 30 30 32 25 27 22 22 24 27 29 29 36 49 52 55 56 57 59 58 57 56 55 55 55 55 56 58 59 59 59 59 58 59 59 58 57 56 53 53
38 34 35 30 28 28 26 22 27 23 26 27 23 20 20 22 26 28 30 31 30 29 31 42 50 53 55 56 58 58 59 59 58 56 56 57 58 59 59 58 58 58 58 58 56 56 54 52 51

GFSSGP_sfc_dewp_117.txt.gz
Dewpoint
56 46 39 38 36 33 31 33 32 35 39 47 50 49 48 54 46 42 63 65 65 68 68 69 71 70 70 70 70 70 70 69 69 69 67 66 65 63 62 63 62 63 62 62 63 63 62 63 63
43 40 37 34 34 33 33 33 33 36 46 54 52 53 52 51 58 62 63 65 68 67 67 68 70 71 69 70 70 70 70 69 69 68 67 66 65 63 62 62 62 63 62 62 63 63 63 63 62
37 36 33 33 32 33 32 33 36 43 49 46 53 55 53 54 61 62 64 67 67 66 66 68 69 70 69 70 69 69 70 69 68 67 67 65 64 63 62 62 61 62 62 62 62 62 63 63 63
36 35 30 29 31 33 32 37 41 41 43 50 53 52 55 59 59 62 66 66 66 65 66 68 69 69 69 69 68 69 68 68 68 67 66 65 64 63 61 63 61 62 62 62 62 62 62 63 62
38 34 27 27 28 30 37 41 41 40 42 49 51 52 53 58 63 65 65 65 64 65 66 67 68 69 68 68 69 69 69 69 69 68 66 65 64 63 62 62 61 62 62 62 62 62 62 62 62
36 34 28 27 28 29 38 41 39 39 43 50 53 53 54 59 63 64 65 65 65 65 66 67 66 67 67 67 69 68 69 69 69 68 66 65 64 62 62 62 62 62 62 61 61 61 61 61 61
36 33 29 30 30 30 31 39 37 39 43 45 54 51 53 56 62 64 65 65 65 66 66 66 66 65 65 65 65 65 68 68 68 67 67 66 65 64 63 63 63 62 62 61 60 60 60 60 60
35 35 33 33 32 31 31 35 38 42 41 52 54 50 53 57 61 64 64 63 65 65 64 64 65 65 64 63 63 64 65 66 66 66 65 64 64 64 63 63 63 62 61 61 60 60 59 59 60
42 33 33 35 27 26 33 34 38 43 44 52 55 54 54 58 60 63 62 62 63 63 63 63 64 63 63 62 61 62 63 64 63 63 62 61 61 61 61 61 63 62 62 60 59 58 58 59 59
40 34 35 40 29 26 28 34 38 43 45 48 51 57 58 59 59 60 61 60 60 61 63 63 63 63 62 62 61 61 62 61 60 60 60 60 59 59 60 59 61 62 61 61 59 58 59 57 55
43 37 39 36 32 29 28 34 35 40 41 45 48 54 57 57 57 60 61 61 60 61 62 63 62 62 61 61 60 60 60 60 59 58 59 59 59 58 58 58 58 57 57 56 56 56 56 55 55
42 44 45 45 45 42 29 27 32 39 37 38 48 56 57 57 57 58 60 61 61 61 62 63 62 62 61 61 60 59 59 59 58 58 59 59 57 56 55 55 55 54 55 55 55 56 55 55 55
40 39 45 48 47 34 31 27 28 27 28 49 56 57 57 57 58 57 59 61 62 61 61 62 62 62 62 60 60 59 59 59 59 59 59 59 57 55 54 54 54 54 55 55 55 55 55 55 55
43 43 45 44 41 31 29 30 36 28 38 54 56 56 56 57 58 57 58 59 62 62 61 62 62 63 62 61 60 60 59 59 59 59 59 58 57 56 56 55 56 56 56 56 56 56 56 55 55
47 43 44 45 43 36 32 30 32 32 49 53 54 54 55 57 57 58 58 58 59 61 62 62 61 62 61 61 60 59 59 59 59 59 59 58 57 56 56 56 56 57 57 56 56 56 55 55 56
42 39 37 40 42 37 31 32 32 34 47 49 53 53 54 56 56 57 58 58 59 59 61 63 62 61 60 59 59 58 58 58 59 59 58 58 57 56 55 56 56 57 57 57 56 55 54 54 53
36 33 34 38 38 37 32 31 33 35 34 40 49 52 54 55 56 57 57 58 59 59 59 60 63 60 59 59 58 58 57 57 58 58 58 58 57 56 55 56 57 57 57 57 56 55 53 53 52
32 32 34 35 36 34 33 32 32 35 38 37 36 48 52 54 55 56 57 58 59 59 59 58 61 63 58 58 57 57 56 56 56 57 58 58 57 57 56 56 57 57 56 56 55 54 54 53 52
35 35 34 35 38 33 34 35 36 36 35 36 36 33 41 51 55 56 56 57 58 58 58 58 59 61 61 57 55 55 55 55 55 56 57 57 57 57 57 56 56 56 56 56 55 54 53 53 53
37 34 33 37 38 34 34 33 33 34 35 35 35 34 32 32 44 52 56 57 57 58 58 58 58 60 62 61 57 56 55 55 55 55 56 57 57 57 57 57 56 56 56 55 55 54 53 52 53
38 37 35 35 37 35 33 34 35 36 34 34 35 35 34 32 31 36 54 57 57 57 57 58 58 58 61 61 60 57 55 56 54 54 55 57 58 58 57 57 57 56 57 56 55 55 53 52 52
36 39 39 38 36 32 34 29 32 35 35 36 36 36 35 33 33 32 44 55 57 57 58 58 58 58 60 61 60 58 56 54 54 54 55 56 58 58 58 57 57 57 57 56 56 56 55 52 51
36 39 39 38 36 35 33 33 31 34 34 35 36 37 38 38 37 36 35 50 56 57 57 57 57 58 59 60 60 60 59 58 56 56 55 55 57 58 58 58 57 57 57 57 57 54 55 55 53
39 38 37 36 35 30 30 33 28 31 35 36 36 37 38 38 39 39 40 40 50 56 57 58 57 57 59 59 59 59 59 58 57 56 56 56 56 57 58 58 58 58 57 57 57 56 55 55 55
39 36 31 30 30 24 25 31 30 33 34 35 35 37 38 39 39 40 40 40 43 51 56 57 56 56 57 58 59 59 58 58 58 57 57 57 57 57 58 58 58 58 58 58 57 56 56 55 55
37 35 29 22 24 24 29 28 28 35 35 35 36 38 38 38 38 39 40 42 41 49 55 57 56 55 56 57 57 58 58 58 58 58 57 57 57 57 57 59 58 58 58 58 57 57 56 56 55
37 36 35 30 18 22 27 31 31 33 33 36 37 37 38 38 38 38 38 39 41 47 53 55 56 54 54 56 57 57 58 58 57 57 57 57 57 57 57 58 58 59 58 58 57 57 56 56 56
38 37 34 34 25 20 23 25 26 30 31 32 31 33 37 38 36 33 33 35 38 43 51 54 56 54 53 54 57 57 57 58 58 57 57 56 56 56 57 57 58 58 58 58 57 57 57 57 56
37 35 37 35 30 23 19 20 28 28 28 29 30 32 34 33 32 29 27 29 29 37 49 53 55 56 54 52 53 55 56 56 57 57 56 56 56 56 57 57 58 58 57 58 58 58 57 57 56
36 34 35 33 27 29 26 25 26 28 25 27 28 29 25 23 22 25 28 30 29 29 42 50 52 54 55 56 56 54 54 54 54 54 55 55 55 56 57 57 57 58 58 58 58 57 57 57 55

GFSSGP_sfc_dewp_123.txt.gz
Dewpoint
58 41 41 41 40 38 36 34 32 38 40 49 50 43 46 49 46 43 63 65 66 67 69 69 70 70 70 70 70 70 70 69 67 65 64 63 64 63 62 62 64 64 64 63 63 63 62 62 62
47 37 40 40 38 36 36 35 33 37 51 53 53 52 49 50 59 61 63 65 68 68 69 69 70 70 70 70 70 70 70 69 67 65 64 63 63 62 62 62 62 64 63 63 63 62 61 62 62
39 36 39 38 37 35 36 35 34 43 53 50 53 55 54 54 59 61 64 66 67 67 68 69 69 70 70 70 70 70 70 69 67 66 64 63 63 62 63 62 62 63 63 63 61 61 62 62 62
39 36 35 35 36 35 35 35 39 49 47 51 53 52 56 59 60 63 66 67 66 66 68 69 70 70 70 70 69 70 69 68 67 66 64 63 62 62 62 62 62 62 61 62 62 62 62 62 62
39 36 38 33 33 32 32 37 44 45 44 50 50 49 54 58 62 65 66 66 65 65 67 68 69 69 69 70 69 70 69 68 67 66 65 62 62 61 62 62 62 62 62 62 62 63 63 62 61
36 35 33 35 32 31 32 41 41 41 45 51 50 53 54 60 62 65 66 65 64 65 67 68 66 67 68 69 69 69 69 69 68 66 64 63 63 62 62 62 62 62 62 62 63 62 62 63 62
38 34 33 32 30 32 37 41 39 41 46 48 52 49 55 59 62 65 65 64 64 65 66 67 66 65 65 67 67 68 68 68 67 66 66 65 65 64 63 63 62 62 62 62 62 62 62 61 61
38 35 34 33 31 32 33 40 39 42 43 53 53 46 47 58 63 64 64 64 64 65 65 65 65 65 65 66 64 65 67 67 67 66 65 64 64 63 63 63 63 62 61 61 61 61 61 61 61
42 33 33 34 32 32 32 36 41 45 50 50 52 50 53 61 64 64 63 63 63 63 65 65 64 63 63 63 62 63 64 64 64 63 62 61 62 62 61 61 63 62 62 60 60 59 60 60 61
39 34 33 38 32 29 28 35 40 44 47 48 51 57 58 63 63 61 60 61 60 61 63 64 64 63 62 61 63 64 64 64 63 62 62 62 61 61 61 60 60 61 61 61 60 60 58 57 57
43 37 39 39 34 39 29 36 37 42 43 44 46 52 58 60 61 60 60 60 60 60 61 63 63 63 62 61 62 63 62 62 62 62 61 61 60 60 60 61 59 59 56 56 57 57 56 57 57
43 44 43 44 46 44 39 30 33 42 41 42 46 53 58 59 59 59 59 59 60 60 61 61 63 62 62 61 61 62 61 60 60 60 60 60 59 59 59 58 58 57 57 56 57 57 57 56 57
43 42 41 45 45 45 40 32 28 32 38 44 47 55 57 59 58 59 60 60 60 60 60 62 62 62 61 60 60 61 61 59 59 59 60 59 59 58 57 57 56 56 56 56 57 57 56 56 56
43 43 41 44 44 43 36 34 35 32 38 47 52 53 55 58 59 58 60 60 60 60 60 61 61 63 61 61 60 60 60 60 58 59 59 59 59 58 56 55 55 55 56 56 57 57 57 56 56
46 44 43 43 42 40 33 35 30 33 41 40 48 52 54 55 57 57 59 60 61 61 61 61 61 62 62 61 60 60 60 59 59 58 59 60 59 58 56 55 55 55 57 57 58 57 57 56 56
42 41 38 39 43 43 36 39 40 34 40 38 44 50 53 54 56 57 58 59 61 62 61 61 62 62 62 61 60 60 60 59 59 59 59 60 60 59 57 56 55 56 57 58 57 57 56 56 55
38 31 36 37 41 42 33 37 37 36 39 37 39 47 51 52 54 56 58 58 59 61 61 61 61 62 62 62 61 60 60 59 59 59 59 59 59 59 58 57 57 57 57 58 57 57 56 55 54
33 35 35 35 34 38 38 34 37 36 35 35 35 37 46 50 52 54 57 58 59 60 61 62 61 61 62 62 61 61 60 59 59 59 58 59 59 59 58 57 57 57 57 57 57 57 56 55 54
35 35 34 35 38 36 34 35 36 37 37 36 36 36 37 37 44 52 56 57 58 59 59 60 61 62 61 61 60 60 59 59 58 59 59 59 59 58 58 57 57 56 56 57 57 57 56 55 54
36 35 34 36 38 37 36 36 37 37 37 37 37 37 37 38 38 43 53 56 57 58 58 59 60 61 61 61 60 59 59 59 58 58 58 58 59 58 58 58 57 56 56 56 57 56 56 56 53
38 38 36 34 37 37 34 32 33 35 37 37 37 37 37 38 38 38 39 53 56 57 57 58 59 59 61 61 60 57 57 56 57 57 57 57 58 58 58 58 58 57 57 56 57 57 56 56 55
37 39 39 37 36 32 35 28 31 32 32 35 36 37 36 37 37 37 37 38 52 55 57 58 59 59 60 61 59 58 58 57 57 57 57 57 57 57 58 58 58 57 57 57 57 57 57 57 55
37 39 39 38 37 36 33 34 30 33 32 32 34 35 37 38 38 37 37 38 38 51 55 57 58 58 59 60 60 59 58 58 58 57 56 57 57 57 57 57 57 57 57 57 57 57 57 57 57
39 37 36 36 36 31 31 31 28 27 28 31 33 33 35 37 38 39 39 40 38 44 53 56 57 57 58 59 60 60 59 58 58 57 56 56 56 56 57 57 57 57 57 57 57 57 57 57 57
38 35 30 29 28 25 28 30 28 29 31 33 33 34 36 37 37 38 39 40 41 40 50 54 56 56 58 58 59 60 60 59 59 58 56 56 55 55 56 57 57 57 57 57 57 57 57 57 56
37 33 27 19 22 23 27 25 25 31 31 31 31 31 33 35 37 39 40 41 42 43 44 52 54 56 57 58 58 59 59 60 59 59 58 57 56 56 56 56 56 57 57 57 57 57 57 57 57
36 32 33 29 18 24 25 27 27 31 31 33 34 35 35 37 38 38 39 40 41 42 43 48 53 55 56 57 58 58 59 59 59 59 60 59 58 58 57 57 56 57 57 57 57 57 57 57 57
37 38 33 34 24 20 22 23 24 26 25 26 31 33 33 33 33 33 36 39 40 41 43 44 49 52 55 56 57 57 58 59 59 59 59 59 59 58 57 57 57 57 57 57 57 57 57 57 57
35 35 36 36 33 24 19 21 26 26 26 27 29 31 29 27 27 28 28 32 31 33 35 40 48 52 54 56 56 57 58 58 59 59 59 59 58 58 57 57 57 57 57 57 57 57 57 56 56
36 34 37 32 28 32 30 26 26 26 27 28 25 24 24 25 25 24 27 29 30 31 32 37 45 51 54 54 55 56 56 57 57 58 58 58 57 57 57 57 56 56 57 57 57 57 57 56 56